date,time,SUV Intensity [MED/Hr],UV Index,Daily total [MED],Since Last [MED]
27/05/2022,00:09:33,-0.000,0.0,0.0,0.0
27/05/2022,00:10:40,-0.001,0.0,0.0,0.0
27/05/2022,00:12:33,0.001,0.0,0.0,0.0
27/05/2022,00:13:32,-0.001,0.0,0.0,0.0
27/05/2022,00:14:32,0.000,0.0,0.0,0.0
27/05/2022,00:15:32,0.001,0.0,0.0,0.0
27/05/2022,00:16:32,0.000,0.0,0.0,0.0
27/05/2022,00:17:32,0.001,0.0,0.0,0.0
27/05/2022,00:18:32,0.001,0.0,0.0,0.0
27/05/2022,00:19:32,0.001,0.0,0.0,0.0
27/05/2022,00:20:41,0.000,0.0,0.0,0.0
27/05/2022,00:22:32,0.000,0.0,0.0,0.0
27/05/2022,00:23:40,0.001,0.0,0.0,0.0
27/05/2022,00:24:32,0.000,0.0,0.0,0.0
27/05/2022,00:25:32,-0.000,0.0,0.0,0.0
27/05/2022,00:26:32,0.000,0.0,0.0,0.0
27/05/2022,00:27:32,0.000,0.0,0.0,0.0
27/05/2022,00:28:32,0.000,0.0,0.0,0.0
27/05/2022,00:29:32,0.000,0.0,0.0,0.0
27/05/2022,00:30:32,0.000,0.0,0.0,0.0
27/05/2022,00:31:33,0.001,0.0,0.0,0.0
27/05/2022,00:32:32,0.000,0.0,0.0,0.0
27/05/2022,00:33:42,0.001,0.0,0.0,0.0
27/05/2022,00:35:33,-0.001,0.0,0.0,0.0
27/05/2022,00:36:32,0.001,0.0,0.0,0.0
27/05/2022,00:37:33,0.000,0.0,0.0,0.0
27/05/2022,00:38:32,0.000,0.0,0.0,0.0
27/05/2022,00:39:32,0.000,0.0,0.0,0.0
27/05/2022,00:40:32,0.000,0.0,0.0,0.0
27/05/2022,00:41:32,0.000,0.0,0.0,0.0
27/05/2022,00:42:32,0.000,0.0,0.0,0.0
27/05/2022,00:43:40,0.000,0.0,0.0,0.0
27/05/2022,00:44:31,0.001,0.0,0.0,0.0
27/05/2022,00:45:32,0.001,0.0,0.0,0.0
27/05/2022,00:46:32,-0.001,0.0,0.0,0.0
27/05/2022,00:47:32,0.000,0.0,0.0,0.0
27/05/2022,00:48:32,0.000,0.0,0.0,0.0
27/05/2022,00:49:33,0.000,0.0,0.0,0.0
27/05/2022,00:50:32,0.000,0.0,0.0,0.0
27/05/2022,00:51:32,0.000,0.0,0.0,0.0
27/05/2022,00:52:32,0.001,0.0,0.0,0.0
27/05/2022,00:53:32,0.000,0.0,0.0,0.0
27/05/2022,00:54:32,0.001,0.0,0.0,0.0
27/05/2022,00:55:32,0.002,0.0,0.0,0.0
27/05/2022,00:56:32,0.000,0.0,0.0,0.0
27/05/2022,00:57:32,-0.000,0.0,0.0,0.0
27/05/2022,00:58:32,0.001,0.0,0.0,0.0
27/05/2022,00:59:32,0.000,0.0,0.0,0.0
27/05/2022,01:00:32,0.001,0.0,0.0,0.0
27/05/2022,01:01:32,0.000,0.0,0.0,0.0
27/05/2022,01:02:32,0.000,0.0,0.0,0.0
27/05/2022,01:03:32,0.000,0.0,0.0,0.0
27/05/2022,01:04:32,0.000,0.0,0.0,0.0
27/05/2022,01:05:32,0.000,0.0,0.0,0.0
27/05/2022,01:06:32,0.001,0.0,0.0,0.0
27/05/2022,01:07:32,0.000,0.0,0.0,0.0
27/05/2022,01:08:32,0.001,0.0,0.0,0.0
27/05/2022,01:09:32,-0.001,0.0,0.0,0.0
27/05/2022,01:10:40,0.000,0.0,0.0,0.0
27/05/2022,01:11:31,0.001,0.0,0.0,0.0
27/05/2022,01:12:34,0.001,0.0,0.0,0.0
27/05/2022,01:13:40,0.001,0.0,0.0,0.0
27/05/2022,01:14:32,-0.001,0.0,0.0,0.0
27/05/2022,01:15:32,0.000,0.0,0.0,0.0
27/05/2022,01:16:32,0.000,0.0,0.0,0.0
27/05/2022,01:17:32,0.001,0.0,0.0,0.0
27/05/2022,01:18:32,0.000,0.0,0.0,0.0
27/05/2022,01:19:32,0.001,0.0,0.0,0.0
27/05/2022,01:20:32,0.000,0.0,0.0,0.0
27/05/2022,01:21:32,0.002,0.0,0.0,0.0
27/05/2022,01:22:32,0.001,0.0,0.0,0.0
27/05/2022,01:23:32,0.000,0.0,0.0,0.0
27/05/2022,01:24:32,0.001,0.0,0.0,0.0
27/05/2022,01:25:32,-0.000,0.0,0.0,0.0
27/05/2022,01:26:41,0.000,0.0,0.0,0.0
27/05/2022,01:27:32,-0.000,0.0,0.0,0.0
27/05/2022,01:28:32,-0.000,0.0,0.0,0.0
27/05/2022,01:29:32,0.000,0.0,0.0,0.0
27/05/2022,01:30:33,0.001,0.0,0.0,0.0
27/05/2022,01:31:32,0.001,0.0,0.0,0.0
27/05/2022,01:32:32,0.000,0.0,0.0,0.0
27/05/2022,01:33:32,0.001,0.0,0.0,0.0
27/05/2022,01:34:32,0.001,0.0,0.0,0.0
27/05/2022,01:35:32,0.000,0.0,0.0,0.0
27/05/2022,01:36:32,0.001,0.0,0.0,0.0
27/05/2022,01:37:49,0.000,0.0,0.0,0.0
27/05/2022,01:39:32,0.000,0.0,0.0,0.0
27/05/2022,01:40:32,0.001,0.0,0.0,0.0
27/05/2022,01:41:32,0.001,0.0,0.0,0.0
27/05/2022,01:42:32,0.000,0.0,0.0,0.0
27/05/2022,01:43:32,0.001,0.0,0.0,0.0
27/05/2022,01:44:40,0.000,0.0,0.0,0.0
27/05/2022,01:46:33,0.001,0.0,0.0,0.0
27/05/2022,01:47:32,0.001,0.0,0.0,0.0
27/05/2022,01:48:24,0.001,0.0,0.0,0.0
27/05/2022,01:49:33,0.000,0.0,0.0,0.0
27/05/2022,01:50:32,-0.001,0.0,0.0,0.0
27/05/2022,01:51:39,0.001,0.0,0.0,0.0
27/05/2022,01:52:31,0.001,0.0,0.0,0.0
27/05/2022,01:53:33,0.001,0.0,0.0,0.0
27/05/2022,01:54:32,0.000,0.0,0.0,0.0
27/05/2022,01:55:32,0.000,0.0,0.0,0.0
27/05/2022,01:56:32,0.000,0.0,0.0,0.0
27/05/2022,01:57:41,0.001,0.0,0.0,0.0
27/05/2022,01:59:33,0.001,0.0,0.0,0.0
27/05/2022,02:00:32,0.001,0.0,0.0,0.0
27/05/2022,02:01:32,0.001,0.0,0.0,0.0
27/05/2022,02:02:32,0.000,0.0,0.0,0.0
27/05/2022,02:03:32,0.001,0.0,0.0,0.0
27/05/2022,02:04:32,0.000,0.0,0.0,0.0
27/05/2022,02:05:32,0.000,0.0,0.0,0.0
27/05/2022,02:06:32,0.001,0.0,0.0,0.0
27/05/2022,02:07:40,0.001,0.0,0.0,0.0
27/05/2022,02:09:33,-0.000,0.0,0.0,0.0
27/05/2022,02:10:32,0.001,0.0,0.0,0.0
27/05/2022,02:11:33,0.000,0.0,0.0,0.0
27/05/2022,02:12:32,0.001,0.0,0.0,0.0
27/05/2022,02:13:33,0.000,0.0,0.0,0.0
27/05/2022,02:14:34,0.001,0.0,0.0,0.0
27/05/2022,02:15:33,0.001,0.0,0.0,0.0
27/05/2022,02:16:32,-0.000,0.0,0.0,0.0
27/05/2022,02:17:40,0.000,0.0,0.0,0.0
27/05/2022,02:19:33,0.001,0.0,0.0,0.0
27/05/2022,02:20:32,0.001,0.0,0.0,0.0
27/05/2022,02:21:32,-0.000,0.0,0.0,0.0
27/05/2022,02:22:33,0.002,0.0,0.0,0.0
27/05/2022,02:23:33,0.002,0.0,0.0,0.0
27/05/2022,02:24:32,0.001,0.0,0.0,0.0
27/05/2022,02:25:32,0.001,0.0,0.0,0.0
27/05/2022,02:26:33,0.001,0.0,0.0,0.0
27/05/2022,02:27:32,0.001,0.0,0.0,0.0
27/05/2022,02:28:33,0.000,0.0,0.0,0.0
27/05/2022,02:29:32,0.001,0.0,0.0,0.0
27/05/2022,02:30:32,0.001,0.0,0.0,0.0
27/05/2022,02:31:33,0.001,0.0,0.0,0.0
27/05/2022,02:32:32,0.000,0.0,0.0,0.0
27/05/2022,02:33:32,0.001,0.0,0.0,0.0
27/05/2022,02:34:32,0.000,0.0,0.0,0.0
27/05/2022,02:35:33,0.001,0.0,0.0,0.0
27/05/2022,02:36:32,0.001,0.0,0.0,0.0
27/05/2022,02:37:32,0.001,0.0,0.0,0.0
27/05/2022,02:38:32,-0.000,0.0,0.0,0.0
27/05/2022,02:39:33,0.001,0.0,0.0,0.0
27/05/2022,02:40:32,0.001,0.0,0.0,0.0
27/05/2022,02:41:41,0.001,0.0,0.0,0.0
27/05/2022,02:43:33,0.000,0.0,0.0,0.0
27/05/2022,02:44:32,0.001,0.0,0.0,0.0
27/05/2022,02:45:32,0.001,0.0,0.0,0.0
27/05/2022,02:46:32,0.001,0.0,0.0,0.0
27/05/2022,02:47:33,0.001,0.0,0.0,0.0
27/05/2022,02:48:32,0.002,0.0,0.0,0.0
27/05/2022,02:49:33,0.001,0.0,0.0,0.0
27/05/2022,02:50:33,0.001,0.0,0.0,0.0
27/05/2022,02:51:40,0.001,0.0,0.0,0.0
27/05/2022,02:53:32,0.001,0.0,0.0,0.0
27/05/2022,02:54:32,0.001,0.0,0.0,0.0
27/05/2022,02:55:32,0.000,0.0,0.0,0.0
27/05/2022,02:56:32,0.001,0.0,0.0,0.0
27/05/2022,02:57:32,0.002,0.0,0.0,0.0
27/05/2022,02:58:32,0.002,0.0,0.0,0.0
27/05/2022,02:59:32,0.001,0.0,0.0,0.0
27/05/2022,03:00:32,0.002,0.0,0.0,0.0
27/05/2022,03:01:32,0.001,0.0,0.0,0.0
27/05/2022,03:02:32,0.001,0.0,0.0,0.0
27/05/2022,03:03:32,0.001,0.0,0.0,0.0
27/05/2022,03:04:32,0.002,0.0,0.0,0.0
27/05/2022,03:05:32,-0.001,0.0,0.0,0.0
27/05/2022,03:06:32,0.001,0.0,0.0,0.0
27/05/2022,03:07:42,0.002,0.0,0.0,0.0
27/05/2022,03:09:33,0.001,0.0,0.0,0.0
27/05/2022,03:10:33,0.000,0.0,0.0,0.0
27/05/2022,03:11:32,0.001,0.0,0.0,0.0
27/05/2022,03:12:32,0.001,0.0,0.0,0.0
27/05/2022,03:13:32,0.001,0.0,0.0,0.0
27/05/2022,03:14:32,0.001,0.0,0.0,0.0
27/05/2022,03:15:32,0.001,0.0,0.0,0.0
27/05/2022,03:16:32,0.001,0.0,0.0,0.0
27/05/2022,03:17:40,0.001,0.0,0.0,0.0
27/05/2022,03:19:33,0.001,0.0,0.0,0.0
27/05/2022,03:20:32,0.000,0.0,0.0,0.0
27/05/2022,03:21:32,0.001,0.0,0.0,0.0
27/05/2022,03:22:32,0.001,0.0,0.0,0.0
27/05/2022,03:23:32,0.002,0.0,0.0,0.0
27/05/2022,03:24:32,0.001,0.0,0.0,0.0
27/05/2022,03:25:33,0.002,0.0,0.0,0.0
27/05/2022,03:26:32,0.001,0.0,0.0,0.0
27/05/2022,03:27:33,0.001,0.0,0.0,0.0
27/05/2022,03:28:32,0.002,0.0,0.0,0.0
27/05/2022,03:29:33,0.002,0.0,0.0,0.0
27/05/2022,03:30:32,0.002,0.0,0.0,0.0
27/05/2022,03:31:33,0.001,0.0,0.0,0.0
27/05/2022,03:32:32,0.001,0.0,0.0,0.0
27/05/2022,03:33:32,0.001,0.0,0.0,0.0
27/05/2022,03:34:32,0.001,0.0,0.0,0.0
27/05/2022,03:35:32,0.001,0.0,0.0,0.0
27/05/2022,03:36:32,0.001,0.0,0.0,0.0
27/05/2022,03:37:33,0.001,0.0,0.0,0.0
27/05/2022,03:38:32,0.002,0.0,0.0,0.0
27/05/2022,03:39:32,0.003,0.0,0.0,0.0
27/05/2022,03:40:33,0.001,0.0,0.0,0.0
27/05/2022,03:41:32,0.001,0.0,0.0,0.0
27/05/2022,03:42:32,0.002,0.0,0.0,0.0
27/05/2022,03:43:32,0.003,0.0,0.0,0.0
27/05/2022,03:44:32,0.002,0.0,0.0,0.0
27/05/2022,03:45:34,0.002,0.0,0.0,0.0
27/05/2022,03:46:32,0.002,0.0,0.0,0.0
27/05/2022,03:47:32,0.002,0.0,0.0,0.0
27/05/2022,03:48:40,0.002,0.0,0.0,0.0
27/05/2022,03:50:33,0.001,0.0,0.0,0.0
27/05/2022,03:51:41,0.002,0.0,0.0,0.0
27/05/2022,03:53:33,0.003,0.0,0.0,0.0
27/05/2022,03:54:32,0.001,0.0,0.0,0.0
27/05/2022,03:55:32,0.002,0.0,0.0,0.0
27/05/2022,03:56:32,0.003,0.0,0.0,0.0
27/05/2022,03:57:32,0.003,0.0,0.0,0.0
27/05/2022,03:58:41,0.003,0.0,0.0,0.0
27/05/2022,03:59:32,0.003,0.0,0.0,0.0
27/05/2022,04:00:33,0.003,0.0,0.0,0.0
27/05/2022,04:01:40,0.003,0.0,0.0,0.0
27/05/2022,04:02:32,0.003,0.0,0.0,0.0
27/05/2022,04:03:32,0.003,0.0,0.0,0.0
27/05/2022,04:04:32,0.003,0.0,0.0,0.0
27/05/2022,04:05:32,0.004,0.0,0.0,0.0
27/05/2022,04:06:33,0.004,0.0,0.0,0.0
27/05/2022,04:07:49,0.004,0.0,0.0,0.0
27/05/2022,04:09:33,0.003,0.0,0.0,0.0
27/05/2022,04:10:32,0.005,0.0,0.0,0.0
27/05/2022,04:11:32,0.005,0.0,0.0,0.0
27/05/2022,04:12:41,0.005,0.0,0.0,0.0
27/05/2022,04:14:33,0.005,0.0,0.0,0.0
27/05/2022,04:15:33,0.005,0.0,0.0,0.0
27/05/2022,04:16:33,0.006,0.0,0.0,0.0
27/05/2022,04:17:32,0.006,0.0,0.0,0.0
27/05/2022,04:18:32,0.005,0.0,0.0,0.0
27/05/2022,04:19:32,0.007,0.0,0.0,0.0
27/05/2022,04:20:32,0.006,0.0,0.0,0.0
27/05/2022,04:21:32,0.007,0.0,0.0,0.0
27/05/2022,04:22:40,0.007,0.0,0.0,0.0
27/05/2022,04:23:32,0.007,0.0,0.001,0.001
27/05/2022,04:24:32,0.007,0.0,0.001,0.0
27/05/2022,04:25:32,0.009,0.0,0.001,0.0
27/05/2022,04:26:32,0.008,0.0,0.001,0.0
27/05/2022,04:27:32,0.009,0.0,0.001,0.0
27/05/2022,04:28:32,0.009,0.0,0.001,0.0
27/05/2022,04:29:32,0.010,0.0,0.001,0.0
27/05/2022,04:30:32,0.010,0.0,0.001,0.0
27/05/2022,04:31:32,0.009,0.0,0.002,0.001
27/05/2022,04:32:41,0.011,0.0,0.002,0.0
27/05/2022,04:34:33,0.011,0.0,0.002,0.0
27/05/2022,04:35:33,0.010,0.0,0.002,0.0
27/05/2022,04:36:33,0.011,0.0,0.003,0.001
27/05/2022,04:37:32,0.012,0.0,0.003,0.0
27/05/2022,04:38:32,0.012,0.0,0.003,0.0
27/05/2022,04:39:33,0.013,0.0,0.003,0.0
27/05/2022,04:40:32,0.013,0.0,0.003,0.0
27/05/2022,04:41:32,0.015,0.0,0.004,0.001
27/05/2022,04:42:32,0.014,0.0,0.004,0.0
27/05/2022,04:43:33,0.015,0.0,0.004,0.0
27/05/2022,04:44:33,0.016,0.0,0.004,0.0
27/05/2022,04:45:48,0.016,0.0,0.005,0.001
27/05/2022,04:47:33,0.018,0.0,0.005,0.0
27/05/2022,04:48:32,0.016,0.0,0.005,0.0
27/05/2022,04:49:41,0.018,0.0,0.006,0.001
27/05/2022,04:50:32,0.019,0.0,0.006,0.0
27/05/2022,04:51:32,0.019,0.0,0.006,0.0
27/05/2022,04:52:32,0.019,0.0,0.007,0.001
27/05/2022,04:53:32,0.020,0.0,0.007,0.0
27/05/2022,04:54:32,0.020,0.0,0.007,0.0
27/05/2022,04:55:32,0.021,0.0,0.008,0.001
27/05/2022,04:56:32,0.023,0.0,0.008,0.0
27/05/2022,04:57:33,0.023,0.0,0.008,0.0
27/05/2022,04:58:33,0.023,0.0,0.009,0.001
27/05/2022,04:59:41,0.025,0.0,0.009,0.0
27/05/2022,05:01:33,0.026,0.0,0.01,0.001
27/05/2022,05:02:32,0.026,0.0,0.01,0.0
27/05/2022,05:03:32,0.028,0.0,0.011,0.001
27/05/2022,05:04:32,0.029,0.0,0.011,0.0
27/05/2022,05:05:33,0.029,0.0,0.012,0.001
27/05/2022,05:06:41,0.030,0.0,0.012,0.0
27/05/2022,05:07:31,0.030,0.0,0.013,0.001
27/05/2022,05:08:32,0.031,0.0,0.013,0.0
27/05/2022,05:09:41,0.032,0.0,0.014,0.001
27/05/2022,05:11:33,0.033,0.0,0.015,0.001
27/05/2022,05:12:32,0.035,0.0,0.015,0.0
27/05/2022,05:13:33,0.036,0.0,0.016,0.001
27/05/2022,05:14:32,0.036,0.0,0.017,0.001
27/05/2022,05:15:33,0.039,0.0,0.017,0.0
27/05/2022,05:16:32,0.038,0.0,0.018,0.001
27/05/2022,05:17:33,0.041,0.0,0.019,0.001
27/05/2022,05:18:35,0.041,0.0,0.019,0.0
27/05/2022,05:19:32,0.041,0.0,0.02,0.001
27/05/2022,05:20:32,0.044,0.0,0.021,0.001
27/05/2022,05:21:33,0.044,0.0,0.021,0.0
27/05/2022,05:22:32,0.047,0.0,0.022,0.001
27/05/2022,05:23:33,0.048,0.0,0.023,0.001
27/05/2022,05:24:32,0.048,0.0,0.024,0.001
27/05/2022,05:25:32,0.049,0.0,0.024,0.0
27/05/2022,05:26:32,0.051,0.0,0.025,0.001
27/05/2022,05:27:32,0.052,0.0,0.026,0.001
27/05/2022,05:28:32,0.053,0.0,0.027,0.001
27/05/2022,05:29:33,0.053,0.0,0.028,0.001
27/05/2022,05:30:32,0.054,0.0,0.029,0.001
27/05/2022,05:31:32,0.055,0.0,0.03,0.001
27/05/2022,05:32:33,0.056,0.0,0.031,0.001
27/05/2022,05:33:33,0.055,0.0,0.032,0.001
27/05/2022,05:34:33,0.054,0.0,0.032,0.0
27/05/2022,05:35:32,0.053,0.0,0.033,0.001
27/05/2022,05:36:33,0.052,0.0,0.034,0.001
27/05/2022,05:37:32,0.053,0.0,0.035,0.001
27/05/2022,05:38:33,0.053,0.0,0.036,0.001
27/05/2022,05:39:33,0.053,0.0,0.037,0.001
27/05/2022,05:40:42,0.053,0.0,0.038,0.001
27/05/2022,05:42:33,0.051,0.0,0.039,0.001
27/05/2022,05:43:32,0.052,0.0,0.04,0.001
27/05/2022,05:44:40,0.056,0.0,0.041,0.001
27/05/2022,05:46:34,0.063,0.0,0.043,0.002
27/05/2022,05:47:33,0.065,0.0,0.044,0.001
27/05/2022,05:48:33,0.068,0.0,0.045,0.001
27/05/2022,05:49:33,0.070,0.0,0.046,0.001
27/05/2022,05:50:33,0.073,0.0,0.048,0.002
27/05/2022,05:51:33,0.077,0.0,0.049,0.001
27/05/2022,05:52:33,0.078,0.0,0.05,0.001
27/05/2022,05:53:41,0.079,0.0,0.052,0.002
27/05/2022,05:55:33,0.081,0.0,0.054,0.002
27/05/2022,05:56:33,0.086,0.0,0.056,0.002
27/05/2022,05:57:32,0.088,0.0,0.057,0.001
27/05/2022,05:58:32,0.091,0.0,0.059,0.002
27/05/2022,05:59:33,0.093,0.0,0.06,0.001
27/05/2022,06:00:41,0.097,0.0,0.062,0.002
27/05/2022,06:02:33,0.102,0.0,0.065,0.003
27/05/2022,06:03:41,0.105,0.0,0.067,0.002
27/05/2022,06:04:32,0.109,0.0,0.068,0.001
27/05/2022,06:05:32,0.112,0.0,0.07,0.002
27/05/2022,06:06:32,0.114,0.0,0.072,0.002
27/05/2022,06:07:33,0.118,0.0,0.074,0.002
27/05/2022,06:08:33,0.120,0.0,0.076,0.002
27/05/2022,06:09:33,0.121,0.0,0.078,0.002
27/05/2022,06:10:32,0.121,0.0,0.08,0.002
27/05/2022,06:11:33,0.121,0.0,0.082,0.002
27/05/2022,06:12:32,0.122,0.0,0.084,0.002
27/05/2022,06:13:33,0.127,0.0,0.086,0.002
27/05/2022,06:14:32,0.131,0.0,0.088,0.002
27/05/2022,06:15:33,0.138,0.0,0.091,0.003
27/05/2022,06:16:33,0.140,0.0,0.093,0.002
27/05/2022,06:17:41,0.143,0.0,0.096,0.003
27/05/2022,06:19:33,0.150,0.0,0.1,0.004
27/05/2022,06:20:32,0.154,0.0,0.103,0.003
27/05/2022,06:21:32,0.158,0.0,0.105,0.002
27/05/2022,06:22:33,0.163,0.0,0.108,0.003
27/05/2022,06:23:41,0.167,0.0,0.111,0.003
27/05/2022,06:24:32,0.172,0.0,0.114,0.003
27/05/2022,06:25:33,0.184,0.0,0.117,0.003
27/05/2022,06:26:33,0.188,0.0,0.12,0.003
27/05/2022,06:27:33,0.191,0.0,0.123,0.003
27/05/2022,06:28:49,0.194,0.0,0.127,0.004
27/05/2022,06:30:34,0.187,0.0,0.133,0.006
27/05/2022,06:31:33,0.187,0.0,0.136,0.003
27/05/2022,06:32:32,0.208,0.0,0.139,0.003
27/05/2022,06:33:41,0.199,0.0,0.143,0.004
27/05/2022,06:35:33,0.197,0.0,0.149,0.006
27/05/2022,06:36:33,0.201,0.0,0.152,0.003
27/05/2022,06:37:33,0.228,1.0,0.156,0.004
27/05/2022,06:38:33,0.239,1.0,0.16,0.004
27/05/2022,06:39:33,0.224,1.0,0.164,0.004
27/05/2022,06:40:33,0.224,1.0,0.168,0.004
27/05/2022,06:41:32,0.251,1.0,0.172,0.004
27/05/2022,06:42:33,0.252,1.0,0.176,0.004
27/05/2022,06:43:34,0.242,1.0,0.18,0.004
27/05/2022,06:44:33,0.267,1.0,0.184,0.004
27/05/2022,06:45:32,0.264,1.0,0.188,0.004
27/05/2022,06:46:33,0.269,1.0,0.193,0.005
27/05/2022,06:47:32,0.278,1.0,0.197,0.004
27/05/2022,06:48:33,0.285,1.0,0.202,0.005
27/05/2022,06:49:33,0.289,1.0,0.207,0.005
27/05/2022,06:50:33,0.289,1.0,0.212,0.005
27/05/2022,06:51:33,0.295,1.0,0.216,0.004
27/05/2022,06:52:33,0.298,1.0,0.221,0.005
27/05/2022,06:53:33,0.303,1.0,0.226,0.005
27/05/2022,06:54:33,0.276,1.0,0.231,0.005
27/05/2022,06:55:33,0.271,1.0,0.236,0.005
27/05/2022,06:56:32,0.313,1.0,0.24,0.004
27/05/2022,06:57:41,0.268,1.0,0.246,0.006
27/05/2022,06:59:33,0.268,1.0,0.255,0.009
27/05/2022,07:00:33,0.267,1.0,0.259,0.004
27/05/2022,07:01:33,0.269,1.0,0.264,0.005
27/05/2022,07:02:33,0.273,1.0,0.268,0.004
27/05/2022,07:03:33,0.270,1.0,0.273,0.005
27/05/2022,07:04:33,0.269,1.0,0.277,0.004
27/05/2022,07:05:41,0.282,1.0,0.282,0.005
27/05/2022,07:07:33,0.309,1.0,0.293,0.011
27/05/2022,07:08:33,0.306,1.0,0.298,0.005
27/05/2022,07:09:33,0.317,1.0,0.303,0.005
27/05/2022,07:10:41,0.383,1.0,0.309,0.006
27/05/2022,07:11:32,0.384,1.0,0.314,0.005
27/05/2022,07:12:32,0.400,1.0,0.321,0.007
27/05/2022,07:13:33,0.404,1.0,0.327,0.006
27/05/2022,07:14:33,0.328,1.0,0.333,0.006
27/05/2022,07:15:33,0.326,1.0,0.338,0.005
27/05/2022,07:16:33,0.413,1.0,0.344,0.006
27/05/2022,07:17:32,0.331,1.0,0.351,0.007
27/05/2022,07:18:33,0.331,1.0,0.356,0.005
27/05/2022,07:19:33,0.392,1.0,0.362,0.006
27/05/2022,07:20:42,0.422,1.0,0.37,0.008
27/05/2022,07:22:33,0.443,1.0,0.383,0.013
27/05/2022,07:23:33,0.451,1.0,0.39,0.007
27/05/2022,07:24:34,0.467,1.0,0.398,0.008
27/05/2022,07:25:32,0.468,1.0,0.406,0.008
27/05/2022,07:26:33,0.474,1.0,0.413,0.007
27/05/2022,07:27:33,0.483,1.0,0.422,0.009
27/05/2022,07:28:33,0.461,1.0,0.429,0.007
27/05/2022,07:29:33,0.411,1.0,0.436,0.007
27/05/2022,07:30:33,0.405,1.0,0.443,0.007
27/05/2022,07:31:33,0.464,1.0,0.45,0.007
27/05/2022,07:32:32,0.368,1.0,0.457,0.007
27/05/2022,07:33:33,0.362,1.0,0.463,0.006
27/05/2022,07:34:32,0.449,1.0,0.47,0.007
27/05/2022,07:35:33,0.410,1.0,0.476,0.006
27/05/2022,07:36:32,0.395,1.0,0.483,0.007
27/05/2022,07:37:32,0.470,1.0,0.49,0.007
27/05/2022,07:38:34,0.471,1.0,0.497,0.007
27/05/2022,07:39:33,0.416,1.0,0.504,0.007
27/05/2022,07:40:33,0.448,1.0,0.511,0.007
27/05/2022,07:41:33,0.546,1.0,0.52,0.009
27/05/2022,07:42:33,0.441,1.0,0.528,0.008
27/05/2022,07:43:33,0.438,1.0,0.535,0.007
27/05/2022,07:44:41,0.417,1.0,0.544,0.009
27/05/2022,07:45:32,0.401,1.0,0.55,0.006
27/05/2022,07:46:33,0.396,1.0,0.556,0.006
27/05/2022,07:47:33,0.397,1.0,0.563,0.007
27/05/2022,07:48:33,0.404,1.0,0.57,0.007
27/05/2022,07:49:33,0.441,1.0,0.577,0.007
27/05/2022,07:50:34,0.444,1.0,0.584,0.007
27/05/2022,07:51:33,0.466,1.0,0.592,0.008
27/05/2022,07:52:33,0.523,1.0,0.6,0.008
27/05/2022,07:53:33,0.581,1.0,0.61,0.01
27/05/2022,07:54:41,0.700,2.0,0.623,0.013
27/05/2022,07:56:34,0.664,2.0,0.644,0.021
27/05/2022,07:57:32,0.564,1.0,0.655,0.011
27/05/2022,07:58:33,0.683,2.0,0.666,0.011
27/05/2022,07:59:33,0.592,1.0,0.676,0.01
27/05/2022,08:00:33,0.535,1.0,0.685,0.009
27/05/2022,08:01:33,0.569,1.0,0.694,0.009
27/05/2022,08:02:33,0.669,2.0,0.705,0.011
27/05/2022,08:03:33,0.610,1.0,0.715,0.01
27/05/2022,08:04:33,0.538,1.0,0.725,0.01
27/05/2022,08:05:33,0.582,1.0,0.735,0.01
27/05/2022,08:06:41,0.518,1.0,0.745,0.01
27/05/2022,08:07:32,0.657,2.0,0.753,0.008
27/05/2022,08:08:34,0.791,2.0,0.765,0.012
27/05/2022,08:09:32,0.810,2.0,0.778,0.013
27/05/2022,08:10:33,0.825,2.0,0.792,0.014
27/05/2022,08:11:33,0.840,2.0,0.803,0.011
27/05/2022,08:12:33,0.762,2.0,0.816,0.013
27/05/2022,08:13:32,0.680,2.0,0.827,0.011
27/05/2022,08:14:32,0.544,1.0,0.838,0.011
27/05/2022,08:15:33,0.571,1.0,0.847,0.009
27/05/2022,08:16:33,0.536,1.0,0.856,0.009
27/05/2022,08:17:33,0.545,1.0,0.866,0.01
27/05/2022,08:18:33,0.552,1.0,0.875,0.009
27/05/2022,08:19:33,0.608,1.0,0.885,0.01
27/05/2022,08:20:33,0.575,1.0,0.894,0.009
27/05/2022,08:21:33,0.611,1.0,0.904,0.01
27/05/2022,08:22:33,0.630,1.0,0.915,0.011
27/05/2022,08:23:32,0.651,1.0,0.926,0.011
27/05/2022,08:24:33,0.965,2.0,0.94,0.014
27/05/2022,08:25:33,0.963,2.0,0.957,0.017
27/05/2022,08:26:32,0.933,2.0,0.971,0.014
27/05/2022,08:27:33,0.870,2.0,0.988,0.017
27/05/2022,08:28:32,0.942,2.0,1.004,0.016
27/05/2022,08:29:32,1.039,2.0,1.02,0.016
27/05/2022,08:30:33,1.046,2.0,1.036,0.016
27/05/2022,08:31:33,1.045,2.0,1.052,0.016
27/05/2022,08:32:33,1.029,2.0,1.069,0.017
27/05/2022,08:33:33,1.049,2.0,1.087,0.018
27/05/2022,08:34:41,1.062,2.0,1.107,0.02
27/05/2022,08:36:34,1.087,2.0,1.141,0.034
27/05/2022,08:37:41,1.098,3.0,1.161,0.02
27/05/2022,08:38:33,1.101,3.0,1.177,0.016
27/05/2022,08:39:33,1.092,3.0,1.196,0.019
27/05/2022,08:40:41,1.122,3.0,1.217,0.021
27/05/2022,08:42:34,1.136,3.0,1.252,0.035
27/05/2022,08:43:33,1.146,3.0,1.27,0.018
27/05/2022,08:44:33,1.157,3.0,1.289,0.019
27/05/2022,08:45:33,1.172,3.0,1.309,0.02
27/05/2022,08:46:33,1.176,3.0,1.329,0.02
27/05/2022,08:47:33,1.185,3.0,1.348,0.019
27/05/2022,08:48:33,1.192,3.0,1.368,0.02
27/05/2022,08:49:33,1.205,3.0,1.388,0.02
27/05/2022,08:50:41,1.215,3.0,1.41,0.022
27/05/2022,08:52:34,1.222,3.0,1.449,0.039
27/05/2022,08:53:41,1.223,3.0,1.471,0.022
27/05/2022,08:54:33,1.247,3.0,1.489,0.018
27/05/2022,08:55:33,1.254,3.0,1.51,0.021
27/05/2022,08:56:33,1.260,3.0,1.532,0.022
27/05/2022,08:57:33,1.277,3.0,1.552,0.02
27/05/2022,08:58:33,1.287,3.0,1.574,0.022
27/05/2022,08:59:33,1.297,3.0,1.595,0.021
27/05/2022,09:00:34,1.305,3.0,1.618,0.023
27/05/2022,09:01:33,1.313,3.0,1.639,0.021
27/05/2022,09:02:33,1.318,3.0,1.661,0.022
27/05/2022,09:03:41,1.333,3.0,1.686,0.025
27/05/2022,09:05:33,1.361,3.0,1.728,0.042
27/05/2022,09:06:33,1.361,3.0,1.75,0.022
27/05/2022,09:07:33,1.371,3.0,1.773,0.023
27/05/2022,09:08:33,1.386,3.0,1.797,0.024
27/05/2022,09:09:33,1.397,3.0,1.819,0.022
27/05/2022,09:10:33,1.406,3.0,1.843,0.024
27/05/2022,09:11:41,1.420,3.0,1.87,0.027
27/05/2022,09:13:33,1.435,3.0,1.914,0.044
27/05/2022,09:14:33,1.445,3.0,1.938,0.024
27/05/2022,09:15:32,1.458,3.0,1.962,0.024
27/05/2022,09:16:32,1.462,3.0,1.986,0.024
27/05/2022,09:17:33,1.472,3.0,2.01,0.024
27/05/2022,09:18:33,1.484,3.0,2.036,0.026
27/05/2022,09:19:33,1.494,3.0,2.06,0.024
27/05/2022,09:20:33,1.505,3.0,2.086,0.026
27/05/2022,09:21:33,1.509,3.0,2.11,0.024
27/05/2022,09:22:33,1.528,4.0,2.136,0.026
27/05/2022,09:23:41,1.533,4.0,2.164,0.028
27/05/2022,09:25:33,1.553,4.0,2.213,0.049
27/05/2022,09:26:33,1.547,4.0,2.238,0.025
27/05/2022,09:27:33,1.566,4.0,2.265,0.027
27/05/2022,09:28:33,1.577,4.0,2.29,0.025
27/05/2022,09:29:33,1.589,4.0,2.317,0.027
27/05/2022,09:30:32,1.582,4.0,2.343,0.026
27/05/2022,09:31:33,1.593,4.0,2.369,0.026
27/05/2022,09:32:32,1.610,4.0,2.396,0.027
27/05/2022,09:33:41,1.619,4.0,2.427,0.031
27/05/2022,09:35:33,1.641,4.0,2.478,0.051
27/05/2022,09:36:32,1.642,4.0,2.505,0.027
27/05/2022,09:37:33,1.658,4.0,2.532,0.027
27/05/2022,09:38:33,1.673,4.0,2.561,0.029
27/05/2022,09:39:33,1.688,4.0,2.588,0.027
27/05/2022,09:40:33,1.693,4.0,2.617,0.029
27/05/2022,09:41:31,1.695,4.0,2.644,0.027
27/05/2022,09:42:33,1.701,4.0,2.673,0.029
27/05/2022,09:43:33,1.722,4.0,2.701,0.028
27/05/2022,09:44:33,1.729,4.0,2.73,0.029
27/05/2022,09:45:35,1.739,4.0,2.76,0.03
27/05/2022,09:46:33,1.749,4.0,2.789,0.029
27/05/2022,09:47:33,1.750,4.0,2.818,0.029
27/05/2022,09:48:33,1.751,4.0,2.847,0.029
27/05/2022,09:49:33,1.763,4.0,2.875,0.028
27/05/2022,09:50:33,1.770,4.0,2.906,0.031
27/05/2022,09:51:33,1.781,4.0,2.934,0.028
27/05/2022,09:52:41,1.791,4.0,2.969,0.035
27/05/2022,09:53:33,1.799,4.0,2.994,0.025
27/05/2022,09:54:33,1.806,4.0,3.024,0.03
27/05/2022,09:55:41,1.810,4.0,3.059,0.035
27/05/2022,09:57:34,1.830,4.0,3.116,0.057
27/05/2022,09:58:33,1.846,4.0,3.146,0.03
27/05/2022,09:59:33,1.851,4.0,3.177,0.031
27/05/2022,10:00:33,1.862,4.0,3.207,0.03
27/05/2022,10:01:33,1.871,4.0,3.238,0.031
27/05/2022,10:02:32,1.891,4.0,3.27,0.032
27/05/2022,10:03:34,1.893,4.0,3.302,0.032
27/05/2022,10:04:33,1.896,4.0,3.333,0.031
27/05/2022,10:05:41,1.908,4.0,3.37,0.037
27/05/2022,10:07:34,1.919,4.0,3.429,0.059
27/05/2022,10:08:24,1.922,4.0,3.456,0.027
27/05/2022,10:09:33,1.934,4.0,3.493,0.037
27/05/2022,10:10:33,1.940,4.0,3.524,0.031
27/05/2022,10:11:33,1.957,5.0,3.557,0.033
27/05/2022,10:12:32,1.973,5.0,3.589,0.032
27/05/2022,10:13:33,1.985,5.0,3.622,0.033
27/05/2022,10:14:33,1.985,5.0,3.657,0.035
27/05/2022,10:15:33,1.986,5.0,3.688,0.031
27/05/2022,10:16:33,1.987,5.0,3.721,0.033
27/05/2022,10:17:33,1.869,4.0,3.754,0.033
27/05/2022,10:18:33,2.024,5.0,3.785,0.031
27/05/2022,10:19:33,2.027,5.0,3.817,0.032
27/05/2022,10:20:33,2.027,5.0,3.852,0.035
27/05/2022,10:21:42,2.052,5.0,3.891,0.039
27/05/2022,10:22:33,1.940,4.0,3.92,0.029
27/05/2022,10:23:33,2.091,5.0,3.952,0.032
27/05/2022,10:24:33,2.117,5.0,3.988,0.036
27/05/2022,10:25:33,2.115,5.0,4.024,0.036
27/05/2022,10:26:33,2.077,5.0,4.057,0.033
27/05/2022,10:27:33,2.072,5.0,4.092,0.035
27/05/2022,10:28:32,2.082,5.0,4.126,0.034
27/05/2022,10:29:33,2.081,5.0,4.161,0.035
27/05/2022,10:30:33,2.091,5.0,4.197,0.036
27/05/2022,10:31:33,2.092,5.0,4.232,0.035
27/05/2022,10:32:33,2.085,5.0,4.266,0.034
27/05/2022,10:33:33,2.089,5.0,4.3,0.034
27/05/2022,10:34:41,2.105,5.0,4.341,0.041
27/05/2022,10:36:34,2.121,5.0,4.407,0.066
27/05/2022,10:37:33,2.128,5.0,4.442,0.035
27/05/2022,10:38:33,2.134,5.0,4.476,0.034
27/05/2022,10:39:33,2.161,5.0,4.513,0.037
27/05/2022,10:40:33,2.168,5.0,4.549,0.036
27/05/2022,10:41:33,2.180,5.0,4.584,0.035
27/05/2022,10:42:33,2.188,5.0,4.622,0.038
27/05/2022,10:43:33,2.202,5.0,4.659,0.037
27/05/2022,10:44:33,2.214,5.0,4.695,0.036